Location: Newark
(40.7830°N, 8.7430°E)
Time: 11:16:23
(UTC+00:00)

ISS - Pass Details

Date: 24 September 2019
Orbit: 411 x 421 km, 51.6° (Epoch: 23 October)

Event Time Altitude Azimuth Distance (km) Brightness Sun altitude
Rises 17:39:24 0° 247° (WSW) 2,336 1.3 -4.6°
Reaches altitude 10° 17:41:32 10° 253° (WSW) 1,476 0.4 -5.0°
Maximum altitude 17:44:45 47° 329° (NNW) 555 -2.8 -5.6°
Drops below altitude 10° 17:47:58 10° 44° (NE) 1,481 -1.3 -6.2°
Enters shadow 17:49:50 - 50° (NE) 2,227 -0.5 -6.6°
